sat.trackr.live / text

‹ back to catalog

ONEWEB-0675

NORAD 55834 · 2023-029AQ

PAYLOAD ACTIVE UNKNOWN

§ Identity

Operator
Country
UK
Launch date
2023-03-09
Launch site
AFETR
Launch vehicle
Mass (kg)
RCS (m²)

Purposes: comms

External: N2YO · Heavens-Above · Gunter

§ Orbital elements

Epoch: 2026-05-25T03:48:52.257888Z

Period
109.11 min
Inclination
87.9150°
Eccentricity
0.0001724
Mean motion
13.19726696 rev/d
Perigee alt
1,184.5 km
Apogee alt
1,187.1 km
Semi-major
7,563.9 km
B*
3.0218e-4
RAAN
309.5680°
Arg perigee
103.1879°
Mean anomaly
256.9446°
Rev number
15,588

§ Raw data

ONEWEB-06751 55834U 23029AQ  26145.15893817  .00000134  00000+0  30218-3 0  99952 55834  87.9150 309.5680 0001724 103.1879 256.9446 13.19726696155884

JSON: /api/v1/satellites/55834 · /tle

For live sub-satellite position, see the globe view (requires WebGL).

§ Visibility from observer

Set your observer location to see the next 7 days of passes ≥ 10°. The values pass through the URL so the page stays shareable.

No JS? Fill the form by hand. The geolocation button needs JavaScript.